CZ-4C DEB, 44616

Orbit data source: Space-Track

CZ-4C DEB, 44616 is space debris in SSO originally from a launch on Sat, 31 Mar 2018 UTC launched from the Taiyaun Space Center, China (TSC). Debris objects in space refer to the collection of defunct objects orbiting the Earth. Examples of debris include non-operational satellites, rocket bodies, and fragments generated from explosions, collisions, or faulty payload assembly.

Loading next visibility...
Identifier
44616, 2018-031K
Orbit
SSO
Country
Flag of CNCN / PRC
Related business
Manufacturer
Unknown
Mission
Spacecraft
Bus & Motor
Unknown
Mass
Unknown
Launch date (UTC)
2018-03-31 (8 years ago)
Launch vehicle
Unknown
Launch site
Taiyaun Space Center, China (TSC)
Object type
Payload
Rocket body
Debris
Shape & HBR
Unknown shape, 0.1 m
Radar Cross Section
Small (<0.1 m²)

Expand to show TLE details & history
Last TLE update: 4 days ago

TLE from 4 days ago
0 CZ-4C DEB
1 44616U 18031K   26030.96694051  .00005864  00000-0  53931-3 0  9992
2 44616  97.8052 116.4395 0005513  38.0150 322.1459 14.95143595405702
Epoch: 2026-01-30T23:12Z
TLE epoch observation values (Epoch: 2026-01-30T23:12:23.660Z)
Latitude
0.00004°
Longitude
-1.85678°
Altitude
581.942 km
Speed
7.571 km/s
True Right ascension
07h 45m 45s
True Declination
0° 00' 00"
Sunlit
Object was in full shadow at epoch
Visualization orbit readout
Latitude
Unknown
Longitude
Unknown
Altitude
Unknown
Speed
Unknown
Apparent Right ascension
Unknown
Apparent Declination
Unknown
Sunlit
N/A
Visualization observer readout
Local Sidereal Time
11:46:14
Azimuth
Unknown
Elevation
Unknown
Doppler factor
Unknown
Orbital elements
Apogee altitude
582.779 km
Perigee altitude
575.108 km
Semi-major axis
6,957.08 km
Eccentricity
0.00055
Inclination
97.8052°
RAAN
116.4395°
Arg. of periapsis
38.015°
True anomaly
322.10711°
Mean anomaly
322.1459°
Eccentric anomaly
322.12651°
Mean motion
3.74027 °/min
Orbital period
96.25 mins
BSTAR
0.00053931
Loading maneuver chart data...
Computing Atmospheric mass density...
Loading historical data...
Loading historical data...
Loading historical data...
Loading historical data...
Loading historical data...
Loading historical data...
Loading historical data...

Documentation

Showing up to 5 results
|